CAPE
89 899 745 587 508 415 370 315 372 444 593 889 909 931 1076 1229 1167 975 900 793 418 752 776 945 1118 1270 1083 1299 1252 1128 1127 1021 761
362 885 884 756 633 559 471 491 459 582 636 1007 1009 914 1017 1221 1293 1090 594 664 877 725 717 871 1572 1014 956 990 1365 1497 1497 1201 1226
416 631 873 984 825 699 568 600 582 671 721 976 1093 1045 1020 1069 1189 1245 1067 982 1082 790 625 1036 1097 1629 1451 1116 1285 1605 1834 983 1331
4 91 366 477 725 695 713 738 718 731 772 835 1063 1070 1008 982 979 1040 1169 1062 1125 1155 912 1027 1459 1446 1491 1528 1311 1534 2051 1483 1204
0 0 0 0 0 2 82 653 716 740 806 803 906 961 1062 1065 1072 1012 829 1046 940 1015 1039 1052 1463 1634 1492 1546 1552 1836 1849 1429 1155
0 0 0 0 0 0 0 0 46 630 686 719 677 892 942 948 991 972 909 796 980 871 969 1049 1230 1483 1623 1413 1445 2075 2089 1557 1460
0 0 0 0 0 0 0 0 0 0 226 575 630 814 798 824 824 849 917 955 972 947 985 1001 1026 1283 1529 1580 1077 1412 1700 1957 1623
0 0 0 0 0 0 0 0 0 0 1 16 322 599 859 811 872 884 915 953 1085 1148 1061 1041 982 900 1084 1408 1543 1110 1434 1914 1851
0 0 0 0 0 0 0 0 0 0 0 0 0 409 495 729 999 1039 1106 1064 975 1106 1202 1227 1119 1023 777 782 778 782 920 1527 1894
0 0 0 0 0 0 0 0 0 0 0 0 0 0 460 505 626 1047 1167 1273 1251 1129 1020 1076 1257 1193 1026 868 767 232 323 571 857
0 0 0 0 0 0 0 0 0 0 0 0 0 0 0 353 372 609 963 1145 1171 1224 1274 1199 1209 1304 1349 1236 1134 562 159 123 627
0 0 0 0 0 0 0 0 0 0 0 0 0 0 0 0 18 796 859 889 1124 1163 1160 1246 1202 1188 1328 1422 1342 744 372 104 277
0 0 0 0 0 0 0 0 0 0 0 0 0 0 0 0 7 1 329 719 997 976 1019 1087 1249 1269 1274 1303 1434 1233 529 166 378
0 0 0 0 0 0 0 0 0 0 0 0 0 0 0 0 0 0 0 72 658 786 1088 1065 1174 1278 1325 1341 1326 1312 742 291 399
0 0 0 0 0 0 0 0 0 0 0 0 0 0 0 0 0 0 0 1 6 544 774 1175 1302 1350 1513 1537 1502 1132 936 371 160
0 0 0 0 0 0 0 0 0 0 0 0 0 0 0 0 0 0 0 0 0 0 432 698 1142 1198 1279 1489 1534 1645 1076 497 180
0 0 0 0 0 0 0 1 1 0 0 1 0 0 0 0 0 0 0 0 0 0 0 158 573 954 1433 1301 1515 1621 1824 1270 428
1 5 5 3 4 4 2 0 3 2 0 0 0 0 0 0 0 0 0 0 0 0 0 9 111 573 968 1284 1310 1457 1662 1705 1914
7 6 5 7 3 9 4 3 2 5 7 3 2 2 0 0 0 0 0 0 0 0 0 0 0 0 3 417 800 603 568 830 798
3 4 3 4 10 6 7 5 6 5 13 8 1 1 9 4 3 1 0 0 0 0 0 0 0 0 0 0 78 328 272 194 231
CIN
-161 -13 -2 -4 -3 -1 -4 -3 -8 -19 -43 -53 -45 -45 -39 -28 -20 -5 -3 -2 -3 -1 -2 -1 -1 -1 -2 0 -4 -2 -12 -2 -3
-88 -7 -7 -6 -2 -3 -4 -1 -9 -23 -35 -55 -53 -50 -48 -35 -31 -25 -5 -1 0 -2 -1 -2 0 -5 -6 -2 0 0 -3 -2 -6
-105 -30 -6 -2 -3 -2 -3 -4 -2 -18 -29 -44 -47 -44 -51 -50 -45 -35 -27 -8 0 -1 -1 -7 -1 0 -1 -5 -1 -1 -4 -1 -2
-81 -362 -166 -82 -20 -2 -1 -3 -2 -6 -20 -32 -33 -35 -38 -51 -48 -47 -43 -32 -7 -2 -1 -1 -2 -8 -2 -1 -3 -1 0 0 -1
0 0 0 0 0 -12 -136 -2 -2 -1 -3 -13 -29 -28 -39 -51 -56 -47 -44 -47 -37 -18 -6 0 0 -4 -3 -1 -1 -1 -1 -4 -1
0 0 0 0 0 0 0 0 -168 -10 -3 -4 -4 -36 -51 -73 -67 -65 -56 -55 -47 -44 -25 -16 -2 -1 -2 -2 -1 -1 -1 -10 -5
0 0 0 0 0 0 0 0 0 0 -57 -5 -4 -2 -21 -48 -89 -78 -59 -61 -54 -49 -42 -31 -25 -9 -1 -2 -1 -1 -2 -2 -10
0 0 0 0 0 0 0 0 0 0 0 -28 -52 -46 -16 -26 -67 -67 -70 -61 -49 -49 -41 -41 -38 -32 -18 -6 -1 -2 -1 0 -1
0 0 0 0 0 0 0 0 0 0 0 0 0 -45 -43 -43 -21 -30 -53 -75 -97 -53 -33 -45 -41 -40 -40 -34 -14 -5 -9 -7 -1
0 0 0 0 0 0 0 0 0 0 0 0 0 0 -37 -42 -44 -26 -28 -33 -47 -73 -75 -50 -47 -49 -45 -47 -48 -81 -71 -58 -21
0 0 0 0 0 0 0 0 0 0 0 0 0 0 0 -52 -61 -45 -15 -8 -26 -35 -33 -39 -43 -46 -57 -56 -54 -87 -177 -193 -60
0 0 0 0 0 0 0 0 0 0 0 0 0 0 0 0 -14 -13 -38 -30 -10 -11 -5 -12 -31 -35 -37 -49 -84 -126 -176 -253 -136
0 0 0 0 0 0 0 0 0 0 0 0 0 0 0 0 0 -37 -227 -31 -8 -4 -3 -3 -3 -13 -18 -37 -64 -116 -217 -278 -117
0 0 0 0 0 0 0 0 0 0 0 0 0 0 0 0 0 0 0 -138 -2 -6 -2 -2 -1 -8 -11 -19 -53 -81 -191 -297 -196
0 0 0 0 0 0 0 0 0 0 0 0 0 0 0 0 0 0 0 0 -155 -38 -2 0 -2 -3 -2 -4 -28 -83 -134 -280 -331
0 0 0 0 0 0 0 0 0 0 0 0 0 0 0 0 0 0 0 0 0 -5 -15 0 0 -7 -2 -1 -5 -7 -93 -223 -337
0 0 0 0 0 0 0 -3 -2 -1 0 -1 0 0 0 0 0 0 0 0 0 0 0 -11 -1 -1 0 -5 -1 -5 -2 -56 -240
-2 -2 -1 -2 0 0 -1 -2 -2 -2 -1 0 0 0 0 0 0 0 0 0 0 0 0 -27 -46 -6 -2 -1 -2 -4 -2 -5 -2
-1 -1 -1 0 -2 -1 -1 -2 -2 -1 -1 -1 -1 -3 0 0 0 0 0 0 0 0 0 0 0 0 -24 -67 -27 -84 -111 -57 -77
-1 -2 -1 -1 0 0 -1 -1 -1 0 -1 -1 -2 -1 -1 -2 -2 -3 0 0 0 0 0 0 0 0 0 0 -316 -160 -197 -248 -183
Wind_Speed
15 6 10 11 15 14 17 14 13 10 10 20 25 30 35 33 27 22 25 22 23 21 19 18 11 15 24 23 23 22 21 23 25
15 7 6 6 8 11 11 14 12 15 20 20 24 24 33 35 23 29 22 28 23 25 23 20 15 11 24 23 23 23 22 23 24
13 13 11 10 6 6 9 17 23 23 28 27 26 26 24 31 31 25 26 23 28 28 25 27 17 26 3 25 25 24 23 23 23
12 10 10 16 16 12 13 18 23 26 28 29 29 28 27 25 29 28 26 23 28 30 30 28 28 25 28 27 26 26 25 24 21
12 11 11 11 12 13 15 19 21 20 24 25 27 30 29 28 28 29 31 26 23 29 30 31 31 23 29 30 29 28 27 26 25
10 11 12 12 12 13 13 15 16 21 19 23 22 24 28 30 27 28 34 30 27 27 30 32 33 29 27 30 31 30 28 28 27
11 11 11 12 13 15 16 15 17 18 19 22 25 22 24 28 29 28 31 31 27 28 30 32 34 33 31 29 32 33 32 29 28
13 14 14 15 16 16 17 17 19 21 22 22 25 28 28 26 30 30 31 32 29 27 29 33 35 34 34 35 35 35 34 33 30
15 16 17 18 19 19 20 21 21 22 23 25 26 27 31 33 31 31 31 32 35 34 30 31 33 35 33 37 40 39 32 37 35
20 20 21 22 22 23 24 24 24 24 25 25 25 27 29 29 33 33 32 34 34 36 39 38 35 35 31 29 32 40 21 12 32
23 25 25 25 26 26 26 26 26 26 26 26 27 27 27 26 27 30 32 33 35 37 37 38 38 37 37 35 31 25 17 16 15
28 29 29 29 29 30 30 29 28 28 28 27 27 27 29 29 29 27 28 35 37 37 37 38 37 37 37 34 34 28 21 21 20
32 33 33 34 34 33 32 32 31 32 31 29 30 31 31 31 32 33 31 37 39 39 38 39 38 37 37 36 36 29 25 22 24
33 34 35 36 37 37 36 35 35 35 34 33 32 33 34 34 34 34 34 36 38 38 38 38 38 38 38 37 35 34 28 24 26
34 36 37 37 39 40 40 39 38 39 39 37 37 36 35 34 35 34 35 40 39 38 39 40 39 39 38 37 34 33 32 27 25
34 35 36 38 40 42 43 42 43 44 43 42 41 41 40 38 36 35 34 36 38 38 38 38 38 37 38 37 34 32 30 30 28
32 34 35 37 39 41 43 43 45 47 46 45 46 47 45 43 41 39 36 35 34 35 36 37 34 38 39 40 35 33 30 25 28
33 34 35 36 38 41 44 45 46 46 48 49 51 50 49 47 45 43 41 39 38 37 35 40 37 38 37 39 41 37 35 33 27
34 36 38 39 39 40 43 44 46 47 47 49 51 53 51 49 47 45 44 43 44 41 40 40 44 46 46 45 43 42 37 34 34
35 36 38 40 41 41 44 44 45 46 46 46 49 52 53 52 50 50 48 47 47 47 43 40 42 43 45 46 48 49 47 41 38
Wind_Direction
259 203 167 164 164 172 172 179 178 210 237 249 245 238 203 204 241 257 248 255 252 256 260 257 296 249 201 200 189 167 170 204 203
266 246 210 191 176 171 188 186 193 235 246 250 248 251 233 222 256 241 258 245 254 248 251 256 273 290 214 214 204 189 175 194 224
293 269 266 250 220 208 235 245 244 245 244 247 250 252 254 243 243 257 253 261 250 244 252 242 271 230 164 195 205 207 193 212 223
305 308 297 267 271 257 259 254 248 246 247 247 250 253 256 258 251 253 258 264 256 248 243 246 245 247 226 203 203 199 200 221 243
309 312 314 300 279 281 273 257 256 254 252 253 254 253 254 255 256 254 251 261 265 256 250 242 238 264 242 219 209 206 203 203 218
312 318 316 305 303 295 290 281 281 267 263 260 261 261 257 256 259 259 250 258 262 260 255 249 240 249 256 242 223 205 197 200 205
307 316 319 318 309 300 299 293 281 283 282 273 267 267 265 261 262 262 259 257 261 261 257 254 248 250 251 254 238 228 214 202 205
298 302 306 311 308 302 303 300 295 276 280 284 276 269 266 267 263 264 262 260 261 263 261 257 253 256 254 249 243 230 217 219 209
294 299 299 300 301 303 301 296 295 289 293 282 280 276 269 266 264 263 262 261 259 260 264 263 262 258 260 253 238 236 257 232 229
285 292 295 296 298 299 299 300 302 298 297 296 288 279 277 273 265 264 264 263 262 260 258 259 262 262 265 266 263 252 267 229 214
284 289 291 293 294 295 297 299 301 301 300 298 294 290 279 283 273 268 267 267 265 264 263 262 261 262 262 263 266 266 251 243 238
288 288 289 290 291 292 292 293 297 298 299 297 296 294 288 282 281 278 276 268 266 269 267 264 264 264 264 265 265 265 255 259 262
288 287 287 287 289 289 288 290 292 290 292 294 292 293 291 289 283 283 283 272 270 269 268 264 264 265 265 266 266 267 262 255 265
291 290 288 288 286 285 286 288 289 285 286 288 292 292 290 289 288 285 267 269 269 271 268 265 263 265 266 266 268 268 266 258 262
294 292 291 290 287 284 285 285 285 283 283 286 288 289 289 290 287 282 277 270 277 274 270 265 264 264 266 269 270 270 269 265 258
297 297 297 294 290 286 283 283 282 279 280 283 283 283 282 284 285 284 281 282 278 277 274 271 268 267 267 268 272 272 269 268 266
302 302 300 300 297 291 287 285 281 279 279 280 279 277 278 279 278 279 280 281 282 279 276 273 274 269 267 266 270 271 273 272 270
306 304 304 303 301 297 292 289 284 281 279 278 275 274 274 274 274 274 274 275 276 277 277 268 277 273 271 266 265 268 270 272 272
310 307 304 302 301 301 299 294 287 284 282 278 274 271 270 270 271 271 270 271 273 274 274 276 270 267 266 266 266 266 270 272 271
313 313 309 303 300 300 300 297 291 287 284 280 275 271 269 267 268 267 267 268 267 269 272 275 271 272 269 266 263 262 264 269 271